COSMOS 249 DEB, 14412

Orbit data source: Space-Track

COSMOS 249 DEB, 14412 is space debris in LEO originally from a launch on Sun, 20 Oct 1968 UTC launched from the Tyuratam Missile And Space Complex (TTMTR). Debris objects in space refer to the collection of defunct objects orbiting the Earth. Examples of debris include non-operational satellites, rocket bodies, and fragments generated from explosions, collisions, or faulty payload assembly.

Loading next visibility...
Identifier
14412, 1968-091CN
Orbit
LEO
Country
Flag of CISCIS
Related business
Manufacturer
Unknown
Mission
Spacecraft
Bus & Motor
Unknown
Mass
Unknown
Launch date (UTC)
1968-10-20 (57 years ago)
Launch vehicle
Unknown
Launch site
Tyuratam Missile And Space Complex (TTMTR)
Object type
Payload
Rocket body
Debris
Shape & HBR
Unknown shape, 0.1 m
Radar Cross Section
Small (<0.1 m²)

Expand to show TLE details & history
Last TLE update: 1 day ago

TLE from 1 day ago
0 COSMOS 249 DEB
1 14412U 68091CN  25286.07636774  .00001967  00000-0  26086-2 0  9996
2 14412  62.2991 308.5284 0738028 279.6206  72.2217 12.83758773 55443
Epoch: 2025-10-13T01:49Z
TLE epoch observation values (Epoch: 2025-10-13T01:49:58.172Z)
Latitude
-0.00003°
Longitude
-100.84834°
Altitude
1,193.647 km
Speed
7.32 km/s
True Right ascension
20h 34m 06s
True Declination
0° 00' 00"
Sunlit
Object was in daylight at epoch
Visualization orbit readout
Latitude
Unknown
Longitude
Unknown
Altitude
Unknown
Speed
Unknown
Apparent Right ascension
Unknown
Apparent Declination
Unknown
Sunlit
N/A
Visualization observer readout
Local Sidereal Time
04:40:17
Azimuth
Unknown
Elevation
Unknown
Doppler factor
Unknown
Orbital elements
Apogee altitude
1,893.927 km
Perigee altitude
756.844 km
Semi-major axis
7,703.523 km
Eccentricity
0.0738
Inclination
62.2991°
RAAN
308.5284°
Arg. of periapsis
279.6206°
True anomaly
80.47937°
Mean anomaly
72.2217°
Eccentric anomaly
76.33051°
Mean motion
3.21003 °/min
Orbital period
112.15 mins
BSTAR
0.0026086
Loading maneuver chart data...
Computing Atmospheric mass density...
Loading historical data...
Loading historical data...
Loading historical data...
Loading historical data...
Loading historical data...
Loading historical data...
Loading historical data...

Documentation

Showing up to 5 results
|